Weather reports worldwide

Advertisment
Geilenkirchen, Germany (10500): temperature & dewpoint: 10.07.2018 18:00:00 - 16.07.2018 18:00:00 (CEST)Geilenkirchen, Germany (10500): wind speed & gusts: 10.07.2018 18:00:00 - 16.07.2018 18:00:00 (CEST)Geilenkirchen, Germany (10500): wind direction: 10.07.2018 18:00:00 - 16.07.2018 18:00:00 (CEST)Geilenkirchen, Germany (10500): reduced air pressure: 10.07.2018 18:00:00 - 16.07.2018 18:00:00 (CEST)Geilenkirchen, Germany (10500): visibility: 10.07.2018 18:00:00 - 16.07.2018 18:00:00 (CEST)
Date & Time tt [°C] td [°C] ff [km/h] ff [kn] fx [km/h] fx [kn] dd ppp [hPa] vv [km]
16.07.2018 18:00:00 29,8 6,1 13 7 - - NNW 1011,4 10
16.07.2018 17:00:00 30,6 6,5 11 6 - - N 1011,5 10
16.07.2018 16:00:00 29,9 4,8 16 9 - - NW 1011,8 10
16.07.2018 15:00:00 30,1 8,1 15 8 - - NNE 1012,2 10
16.07.2018 14:00:00 29,1 7,2 13 7 - - WNW 1012,9 10
16.07.2018 13:00:00 28,3 7,9 15 8 - - N 1013,2 10
16.07.2018 12:00:00 27,6 8,7 15 8 - - N 1013,4 10
16.07.2018 11:00:00 26,2 8,9 9 5 - - N 1013,7 10
16.07.2018 10:00:00 25,9 10,3 4 2 - - N 1013,8 10
16.07.2018 09:00:00 22,9 10,4 4 2 - - SE 1013,9 10
16.07.2018 08:00:00 19,2 10,5 4 2 - - E 1014,2 10
16.07.2018 07:00:00 13,8 9,0 0 0 - - N 1014,5 10
16.07.2018 06:00:00 11,9 8,6 2 1 - - SE 1014,6 10
16.07.2018 05:00:00 13,2 8,4 2 1 - - ENE 1014,5 10
16.07.2018 04:00:00 14,6 8,4 2 1 - - SE 1014,6 10
16.07.2018 03:00:00 15,2 8,1 4 2 - - ESE 1014,9 10
16.07.2018 02:00:00 16,1 8,4 2 1 - - SSE 1015,3 10
16.07.2018 01:00:00 20,1 8,4 8 4 - - SE 1015,1 10
16.07.2018 00:00:00 17,7 9,0 0 0 - - N 1015,2 10
15.07.2018 23:00:00 19,8 8,7 2 1 - - SE 1015,1 10
15.07.2018 22:00:00 26,9 7,5 4 2 - - ENE 1014,6 10
15.07.2018 21:00:00 26,9 7,5 14 8 - - NE 1013,9 70
15.07.2018 20:00:00 28,1 7,3 13 7 - - NNE 1013,8 10
15.07.2018 19:00:00 - - - - - - - - -
15.07.2018 18:00:00 - - - - - - - - -
15.07.2018 17:00:00 - - - - - - - - -
15.07.2018 16:00:00 - - - - - - - - -
15.07.2018 15:00:00 - - - - - - - - -
15.07.2018 14:00:00 - - - - - - - - -
15.07.2018 13:00:00 - - - - - - - - -
15.07.2018 12:00:00 - - - - - - - - -
15.07.2018 11:00:00 - - - - - - - - -
15.07.2018 10:00:00 - - - - - - - - -
15.07.2018 09:00:00 - - - - - - - - -
15.07.2018 08:00:00 - - - - - - - - -
15.07.2018 07:00:00 - - - - - - - - -
15.07.2018 06:00:00 - - - - - - - - -
15.07.2018 05:00:00 - - - - - - - - -
15.07.2018 04:00:00 - - - - - - - - -
15.07.2018 03:00:00 - - - - - - - - -
15.07.2018 02:00:00 - - - - - - - - -
15.07.2018 01:00:00 - - - - - - - - -
15.07.2018 00:00:00 - - - - - - - - -
14.07.2018 23:00:00 - - - - - - - - -
14.07.2018 22:00:00 - - - - - - - - -
14.07.2018 21:00:00 - - - - - - - - -
14.07.2018 20:00:00 - - - - - - - - -
14.07.2018 19:00:00 - - - - - - - - -
14.07.2018 18:00:00 - - - - - - - - -
14.07.2018 17:00:00 - - - - - - - - -
14.07.2018 16:00:00 - - - - - - - - -
14.07.2018 15:00:00 - - - - - - - - -
14.07.2018 14:00:00 - - - - - - - - -
14.07.2018 13:00:00 - - - - - - - - -
14.07.2018 12:00:00 - - - - - - - - -
14.07.2018 11:00:00 - - - - - - - - -
14.07.2018 10:00:00 - - - - - - - - -
14.07.2018 09:00:00 - - - - - - - - -
14.07.2018 08:00:00 - - - - - - - - -
14.07.2018 07:00:00 - - - - - - - - -
14.07.2018 06:00:00 - - - - - - - - -
14.07.2018 05:00:00 - - - - - - - - -
14.07.2018 04:00:00 - - - - - - - - -
14.07.2018 03:00:00 - - - - - - - - -
14.07.2018 02:00:00 - - - - - - - - -
14.07.2018 01:00:00 - - - - - - - - -
14.07.2018 00:00:00 - - - - - - - - -
13.07.2018 23:00:00 - - - - - - - - -
13.07.2018 22:00:00 - - - - - - - - -
13.07.2018 21:00:00 - - - - - - - - -
13.07.2018 20:00:00 - - - - - - - - -
13.07.2018 19:00:00 - - - - - - - - -
13.07.2018 18:00:00 27,6 10,4 13 7 - - WNW 1019,5 10
13.07.2018 17:00:00 27,6 9,3 9 5 - - NE 1019,7 10
13.07.2018 16:00:00 27,0 9,5 11 6 - - N 1019,9 10
13.07.2018 15:00:00 26,1 9,9 13 7 - - N 1020,2 10
13.07.2018 14:00:00 25,4 10,6 15 8 - - NW 1020,7 10
13.07.2018 13:00:00 24,2 12,3 8 4 - - NW 1021,2 10
13.07.2018 12:00:00 23,2 13,1 8 4 - - NNE 1021,3 10
13.07.2018 11:00:00 22,0 13,8 9 5 - - NNE 1021,3 10
13.07.2018 10:00:00 19,8 14,2 8 4 - - N 1021,5 10
13.07.2018 09:00:00 17,8 14,0 4 2 - - N 1021,5 12
13.07.2018 08:00:00 15,6 13,6 5 3 - - NNW 1021,4 7
13.07.2018 07:00:00 13,7 12,3 0 0 - - N 1021,3 7
13.07.2018 06:00:00 12,6 11,8 0 0 - - N 1021,3 10
13.07.2018 05:00:00 13,4 11,9 4 2 - - W 1021,1 10
13.07.2018 04:00:00 14,8 13,2 5 3 - - W 1021,0 10
13.07.2018 03:00:00 16,0 13,3 4 2 - - WNW 1020,7 10
13.07.2018 02:00:00 16,3 13,1 2 1 - - NW 1020,6 10
13.07.2018 01:00:00 17,3 12,3 5 3 - - NW 1020,5 10
13.07.2018 00:00:00 18,9 12,1 7 4 - - NW 1020,1 30
12.07.2018 23:00:00 20,9 11,8 8 4 - - N 1019,8 10
12.07.2018 22:00:00 22,4 11,9 11 6 - - N 1019,0 10
12.07.2018 21:00:00 24,4 12,8 5 3 - - N 1018,3 10
12.07.2018 20:00:00 25,0 12,5 13 7 - - NNE 1018,1 10
12.07.2018 19:00:00 24,8 11,9 8 4 - - N 1018,0 10
12.07.2018 18:00:00 25,0 12,0 13 7 - - N 1018,0 10
12.07.2018 17:00:00 25,6 12,1 13 7 - - N 1018,1 10
12.07.2018 16:00:00 26,1 12,7 9 5 - - NW 1018,4 10
12.07.2018 15:00:00 25,7 13,0 8 4 - - NNW 1018,6 10
12.07.2018 14:00:00 23,8 13,5 13 7 - - NW 1019,0 10
12.07.2018 13:00:00 22,4 14,4 11 6 - - NW 1019,3 10
12.07.2018 12:00:00 20,9 14,3 11 6 - - WNW 1019,4 10
12.07.2018 11:00:00 19,5 13,9 11 6 - - NW 1019,5 10
12.07.2018 10:00:00 18,2 14,1 15 8 - - NW 1019,4 9
12.07.2018 09:00:00 17,1 14,0 15 8 - - WNW 1019,1 8
12.07.2018 08:00:00 16,4 14,3 9 5 - - NW 1018,5 7
12.07.2018 07:00:00 16,0 14,6 9 5 - - WNW 1018,5 7
12.07.2018 06:00:00 15,8 14,4 11 6 - - W 1018,1 7
12.07.2018 05:00:00 16,4 14,4 11 6 - - WNW 1018,1 10
12.07.2018 04:00:00 16,7 14,4 11 6 - - WNW 1018,1 10
12.07.2018 03:00:00 16,7 14,3 11 6 - - W 1018,0 10
12.07.2018 02:00:00 16,8 14,2 8 4 - - W 1018,1 10
12.07.2018 01:00:00 17,8 14,3 8 4 - - NW 1018,0 10
12.07.2018 00:00:00 18,3 13,5 9 5 - - WNW 1018,0 10
11.07.2018 23:00:00 19,4 12,6 16 9 - - NW 1017,8 10
11.07.2018 22:00:00 19,9 12,4 14 8 - - NW 1017,5 15
11.07.2018 21:00:00 19,3 13,3 4 2 - - WNW 1017,2 10
11.07.2018 20:00:00 19,7 13,7 18 10 - - N 1017,3 10
11.07.2018 19:00:00 21,3 12,6 22 12 - - NW 1016,9 30
11.07.2018 18:00:00 21,5 11,1 16 9 - - NW 1016,7 10
11.07.2018 17:00:00 22,2 10,3 18 10 - - NW 1016,9 10
11.07.2018 16:00:00 23,9 9,8 18 10 - - WNW 1017,0 10
11.07.2018 15:00:00 22,1 9,0 18 10 - - NNW 1017,4 10
11.07.2018 14:00:00 22,5 20,2 15 8 - - NNW 1017,6 10
11.07.2018 13:00:00 21,6 8,3 8 4 - - WNW 1017,9 10
11.07.2018 12:00:00 19,8 9,8 16 9 - - NNW 1018,6 10
11.07.2018 11:00:00 19,6 11,1 7 4 - - N 1018,5 30
11.07.2018 10:00:00 17,7 11,5 8 4 - - NNW 1018,7 10
11.07.2018 09:00:00 15,0 11,3 5 3 - - WNW 1018,8 10
11.07.2018 08:00:00 12,8 10,3 8 4 - - WNW 1018,5 10
11.07.2018 07:00:00 10,9 9,4 9 5 - - W 1018,3 10
11.07.2018 06:00:00 10,1 8,8 8 4 - - W 1018,1 10
11.07.2018 05:00:00 9,8 8,6 5 3 - - W 1018,1 10
11.07.2018 04:00:00 10,9 9,1 9 5 - - W 1017,8 10
11.07.2018 03:00:00 11,9 9,4 8 4 - - WNW 1017,7 10
11.07.2018 02:00:00 12,2 9,2 9 5 - - W 1017,7 10
11.07.2018 01:00:00 13,5 9,2 9 5 - - WNW 1017,8 10
11.07.2018 00:00:00 14,6 10,0 9 5 - - W 1017,6 10
10.07.2018 23:00:00 15,0 9,8 9 5 - - WNW 1017,3 10
10.07.2018 22:00:00 16,8 14,2 15 8 47 25 W 1016,6 10
10.07.2018 21:00:00 17,4 13,9 28 15 47 25 W 1016,1 10
10.07.2018 20:00:00 17,4 14,5 31 17 - - W 1016,1 10
10.07.2018 19:00:00 16,7 14,3 31 17 47 25 W 1016,3 10
10.07.2018 18:00:00 15,5 13,9 24 13 - - W 1016,8 10

tt = temperature
td = dewpoint
ff = wind speed
fx = gusts
dd = wind direction
ppp = reduced air pressure
vv = visibility

Next stations